Notices

What's New in latest Release from April 7th, 2021:

- Updated Glossary, including Speed of Maximum Gust, and Total Hourly Precipitation

- Updated national and regional climate services offices contacts and prices information

- Addition of station inventory lists for 1981-2010, 1971-2000, and 1961-1990 Normals.

If you haven't already, please take our survey and provide feedback about our website: https://eccc.sondage-survey.ca/f/LanguageSelection.aspx?s=442ca660-fcf1-47c0-95a9-59707d6fd709

Hourly Data Report for December 14, 2016

CARBERRY CS
MANITOBA

49°54'20.900" N
99°21'26.800" W
383.50 m
5010547
71170
WZE

Download Data

Hourly Data (December 2016)
Hourly Data Report for December 14, 2016
TIME
LST
Temp Definition
°C
Dew Point Definition
°C
Rel Hum Definition
%
Precip. Amount Definition
mm

Wind Dir Definition
10's deg

Wind Spd Definition
km/h
Visibility Definition
km
Stn Press Definition
kPa
Hmdx Definition


Wind Chill Definition


Weather Definition


00:00 -23.3 -29.0 60 0.0 28 31   96.74   -37 LegendNANA
01:00 -23.8 -29.3 61 0.0 27 26   96.80   -37 LegendNANA
02:00 -23.9 -29.0 63 0.0 28 24   96.82   -36 LegendNANA
03:00 -23.2 -27.7 67 0.0 28 34   96.82   -37 LegendNANA
04:00 -23.3 -27.5 68 0.0 29 35   96.90   -38 LegendNANA
05:00 -23.1 -27.4 68 0.0 28 38   96.94   -38 LegendNANA
06:00 -23.3 -27.5 68 0.0 28 37   96.99   -38 LegendNANA
07:00 -23.5 -27.8 68 0.0 27 36   97.03   -38 LegendNANA
08:00 -23.5 -27.9 67 0.0 27 32   97.09   -38 LegendNANA
09:00 -23.7 -28.2 66 0.0 28 33   97.15   -38 LegendNANA
10:00 -23.1 -27.9 65 0.0 28 37   97.21   -38 LegendNANA
11:00 -22.3 -27.5 63 0.0 29 32   97.29   -36 LegendNANA
12:00 -21.8 -26.9 63 0.0 30 36   97.29   -36 LegendNANA
13:00 -21.2 -26.7 61 0.0 29 32   97.33   -34 LegendNANA
14:00 -20.8 -26.5 60 0.0 28 32   97.36   -34 LegendNANA
15:00 -20.7 -26.3 60 0.0 28 31   97.41   -34 LegendNANA
16:00 -21.0 -26.4 62 0.0 28 28   97.50   -34 LegendNANA
17:00 -21.4 -26.3 65 0.0 29 30   97.58   -34 LegendNANA
18:00 -21.9 -26.6 66 0.0 29 29   97.62   -35 LegendNANA
19:00 -22.5 -27.1 66 0.0 29 24   97.67   -35 LegendNANA
20:00 -23.2 -27.7 67 0.0 28 20   97.74   -35 LegendNANA
21:00 -23.4 -27.9 66 0.0 29 19   97.75   -34 LegendNANA
22:00 -24.0 -28.1 69 0.0 27 14   97.81   -34 LegendNANA
23:00 -24.0 -28.0 70 0.0 26 20   97.80   -36 LegendNANA

Notes on Data Quality.

Legend

  • E = Estimated
  • M = Missing
  • NA = Not Available*
  • [empty] = Indicates an unobserved value
Date modified: